DW0354 Weather Reports


Display with metric or nautical units.
time (UTC)temp
F
wind
direction
speed
MPH
gust
MPH
rain 1hr
in
rain 24hr
in
rain mn
in
humidity
%
barometer
mb
20260906234511 87 304 1.0 2.0 0.00 0.00 0.00 61 1012.1
20260906233010 87 282 1.0 3.0 0.00 0.00 0.00 61 1012.2
20260906231517 87 334 2.0 4.0 0.00 0.00 0.00 60 1012.3
20260906230040 87 295 2.0 4.0 0.00 0.00 0.00 60 1012.3
20260906224527 87 292 2.0 4.0 0.00 0.00 0.00 59 1012.3
20260906223011 87 281 2.0 6.0 0.00 0.00 0.00 60 1012.5
20260906221516 87 288 1.0 7.0 0.00 0.00 0.00 61 1012.8
20260906220023 87 281 2.0 6.0 0.00 0.00 0.00 61 1013.0
20260906214527 88 271 3.0 9.0 0.00 0.00 0.00 59 1012.9
20260906213034 89 284 6.0 9.0 0.00 0.00 0.00 57 1013.1
20260906211514 89 307 4.0 11.0 0.00 0.00 0.00 58 1013.2
20260906210021 88 321 2.0 8.0 0.00 0.00 0.00 59 1013.3
20260906204526 88 344 4.0 9.0 0.00 0.00 0.00 61 1013.4
20260906203030 88 360 4.0 9.0 0.00 0.00 0.00 58 1013.5
20260906201512 89 9 4.0 11.0 0.00 0.00 0.00 57 1013.5
20260906200018 90 12 4.0 12.0 0.00 0.00 0.00 54 1013.7
20260906194523 89 68 6.0 12.0 0.00 0.00 0.00 56 1013.8
20260906193030 90 89 5.0 13.0 0.00 0.00 0.00 56 1013.9
20260906191534 97 322 3.0 10.0 0.00 0.00 0.00 45 1013.9
20260906190017 98 169 3.0 9.0 0.00 0.00 0.00 41 1013.8
20260906184519 96 139 6.0 13.0 0.00 0.00 0.00 42 1013.9
20260906183027 94 197 2.0 7.0 0.00 0.00 0.00 46 1014.3
20260906181533 93 149 0.0 5.0 0.00 0.00 0.00 47 1014.4
20260906180031 96 223 2.0 10.0 0.00 0.00 0.00 44 1014.6
20260906174517 94 141 1.0 9.0 0.00 0.00 0.00 47 1014.8
20260906173027 94 191 2.0 5.0 0.00 0.00 0.00 47 1015.2
20260906171530 94 178 3.0 7.0 0.00 0.00 0.00 47 1015.4
20260906170031 93 91 2.0 4.0 0.00 0.00 0.00 49 1015.5
20260906164535 93 121 1.0 6.0 0.00 0.00 0.00 51 1015.6
20260906163021 92 315 3.0 8.0 0.00 0.00 0.00 51 1015.6
20260906161529 91 192 1.0 9.0 0.00 0.00 0.00 56 1015.6
20260906160033 89 24 1.0 6.0 0.00 0.00 0.00 58 1015.6
20260906154534 88 311 2.0 7.0 0.00 0.00 0.00 60 1015.5
20260906153019 88 232 3.0 10.0 0.00 0.00 0.00 60 1015.4
20260906151531 87 143 2.0 6.0 0.00 0.00 0.00 63 1015.3
20260906150027 86 159 3.0 7.0 0.00 0.00 0.00 64 1015.2
20260906144536 85 208 3.0 7.0 0.00 0.00 0.00 66 1015.2
20260906143040 83 148 1.0 5.0 0.00 0.00 0.00 72 1015.1
20260906141523 82 130 1.0 5.0 0.00 0.00 0.00 75 1015.1
20260906140028 81 127 2.0 4.0 0.00 0.00 0.00 80 1014.9
20260906134536 79 193 1.0 3.0 0.00 0.00 0.00 82 1014.9
20260906133035 77 113 1.0 3.0 0.00 0.00 0.00 84 1014.7
20260906131531 75 146 0.0 1.0 0.00 0.00 0.00 87 1014.6
20260906130028 74 146 0.0 2.0 0.00 0.00 0.00 86 1014.4
20260906124510 73 146 0.0 0.0 0.00 0.00 0.00 84 1014.3
20260906123011 73 146 0.0 0.0 0.00 0.00 0.00 84 1014.1
20260906121519 73 146 0.0 2.0 0.00 0.00 0.00 83 1014.1
20260906120025 73 191 0.0 2.0 0.00 0.00 0.00 83 1013.9
20260906114530 73 197 0.0 2.0 0.00 0.00 0.00 82 1013.7
20260906113009 74 231 1.0 2.0 0.00 0.00 0.00 82 1013.4
20260906111516 74 231 0.0 0.0 0.00 0.00 0.00 81 1013.1
20260906110024 74 231 0.0 0.0 0.00 0.00 0.00 81 1013.1
20260906104526 74 231 0.0 0.0 0.00 0.00 0.00 82 1013.1
20260906103008 74 231 0.0 0.0 0.00 0.00 0.00 82 1012.9
20260906101514 74 231 0.0 0.0 0.00 0.00 0.00 81 1012.7
20260906100017 74 231 0.0 0.0 0.00 0.00 0.00 81 1012.9
20260906094528 74 231 0.0 0.0 0.00 0.00 0.00 80 1012.8
20260906093040 74 231 0.0 0.0 0.00 0.00 0.00 80 1012.8
20260906091532 75 231 0.0 0.0 0.00 0.00 0.00 79 1012.9
20260906090017 75 231 0.0 0.0 0.00 0.00 0.00 77 1013.1
20260906084526 76 231 0.0 0.0 0.00 0.00 0.00 76 1013.2
20260906083028 77 231 0.0 0.0 0.00 0.00 0.00 75 1013.4
20260906081534 77 231 0.0 0.0 0.00 0.00 0.00 75 1013.5
20260906080042 78 231 0.0 0.0 0.00 0.00 0.00 74 1013.4
20260906074526 78 231 0.0 2.0 0.00 0.00 0.00 74 1013.6
20260906073029 78 201 0.0 6.0 0.00 0.00 0.00 73 1014.0
20260906071532 78 138 1.0 2.0 0.00 0.00 0.00 72 1014.2
20260906070031 79 131 1.0 3.0 0.00 0.00 0.00 71 1014.0
20260906064527 79 185 0.0 0.0 0.00 0.00 0.00 70 1014.0
20260906063027 80 140 0.0 0.0 0.00 0.00 0.00 69 1014.2
20260906061536 80 175 0.0 1.0 0.00 0.00 0.00 68 1014.3
20260906060037 81 147 0.0 3.0 0.00 0.00 0.00 67 1014.3
20260906054518 81 176 0.0 3.0 0.00 0.00 0.00 65 1014.2
20260906053023 82 154 0.0 2.0 0.00 0.00 0.00 64 1014.4
20260906051529 82 107 1.0 6.0 0.00 0.00 0.00 63 1014.4
20260906050035 83 80 2.0 8.0 0.00 0.00 0.00 63 1014.4
20260906044535 83 163 1.0 9.0 0.00 0.00 0.00 63 1014.3
20260906043019 83 165 1.0 7.0 0.00 0.00 0.00 63 1014.4
20260906041535 84 148 3.0 8.0 0.00 0.00 0.00 63 1014.3
20260906040033 84 150 3.0 11.0 0.00 0.00 0.00 62 1014.1
20260906034510 85 173 3.0 9.0 0.00 0.00 0.00 61 1013.8
20260906033018 85 151 4.0 9.0 0.00 0.00 0.00 61 1013.7
20260906031523 85 72 2.0 8.0 0.00 0.00 0.00 59 1013.4
20260906030029 84 142 3.0 10.0 0.00 0.00 0.00 58 1013.1
20260906024532 84 109 1.0 4.0 0.00 0.00 0.00 56 1012.7
20260906023015 84 86 1.0 4.0 0.00 0.00 0.00 55 1012.2
20260906021522 84 124 0.0 0.0 0.00 0.00 0.00 54 1011.9
20260906020031 85 124 0.0 0.0 0.00 0.00 0.00 52 1011.7
20260906014535 87 124 0.0 0.0 0.00 0.00 0.00 50 1011.7
20260906013010 88 124 0.0 0.0 0.00 0.00 0.00 47 1011.6
20260906011521 90 124 1.0 2.0 0.00 0.00 0.00 45 1011.6
20260906010027 91 153 0.0 0.0 0.00 0.00 0.00 43 1011.5
20260906004532 92 153 0.0 6.0 0.00 0.00 0.00 42 1011.3
20260906003035 93 100 3.0 6.0 0.00 0.00 0.00 41 1011.3
20260906001517 93 99 3.0 7.0 0.00 0.00 0.00 40 1011.3
20260906000024 94 91 4.0 9.0 0.00 0.00 0.00 40 1011.3